Location: Cudham
(51.3000°N, 0.0667°E)
Time: 16:19:09
(UTC+00:00)

USA 229 DEB - Pass Details

Date: 25 April 2026
Orbit: 844 x 1364 km, 63.4° (Epoch: 10 January)

Event Time Altitude Azimuth Distance (km) Brightness Sun altitude
Rises 01:18:32 0° 309° (NW) 4,065 7.0 -23.2°
Reaches altitude 10° 01:22:04 10° 293° (WNW) 3,186 6.2 -23.0°
Enters shadow 01:26:45 19° 256° (WSW) 2,649 5.4 -22.7°
